Location: Keeble Observatory
(37.7625°N, 77.4755°W)
Time: 09:36:06
(UTC-05:00)

Daily predictions for brighter satellites

Satellite Brightness Start Highest point End
(mag) Time Altitude Azimuth Time Altitude Azimuth Time Altitude Azimuth
IDEFIX/ARIANE 42P 3.0 17:46:16 10° S 17:51:26 70° WSW 17:56:42 10° NNW
Cosmos 372 Rocket 3.9 17:47:03 10° NNW 17:52:08 70° ENE 17:57:13 10° SSE
Cosmos 540 Rocket 3.9 17:48:08 10° SSW 17:53:16 68° WNW 17:58:26 10° NNE
Aureole 2 Rocket 2.8 17:49:46 10° SSW 17:53:29 83° WNW 17:57:33 10° NNE
Tiangong 1 3.3 17:53:16 10° S 17:54:40 13° SE 17:56:02 10° ESE
CORIOLIS 4.3 17:51:20 10° SSE 17:56:41 84° WSW 18:02:05 10° NNW
USA 215 4.2 17:54:44 10° E 18:00:10 29° NNE 18:05:36 10° NNW
Cosmos 2058 2.8 17:56:24 10° S 18:00:30 78° E 18:04:36 10° N
Cosmos 1805 Rocket 3.8 17:59:52 10° SSE 18:04:09 48° E 18:08:27 10° NNE
Cosmos 1461 2.9 18:02:48 10° SSW 18:07:01 84° WNW 18:11:07 10° NNE
SKYMED 2 3.6 18:04:13 10° NNE 18:08:33 66° E 18:12:51 10° S
Meteor 1-11 4.4 18:07:15 10° S 18:12:56 82° W 18:18:44 10° N
Cosmos 1626 2.4 18:09:44 10° SSE 18:13:18 44° E 18:16:53 10° NNE
Cosmos 2180 Rocket 4.5 18:07:41 10° N 18:13:50 65° E 18:20:01 10° SSE
Aureole 1 Rocket 4.3 18:10:28 10° SSE 18:15:22 40° E 18:21:40 10° NNE
Sich 1 3.4 18:13:01 10° SSE 18:17:12 43° E 18:21:24 10° NNE
Cosmos 2219 Rocket 4.2 18:14:06 10° WSW 18:18:39 25° WNW 18:23:12 10° N
CZ-2C R/B 4.3 18:14:38 10° SSW 18:19:09 35° W 18:23:34 10° NNW
Cosmos 1356 Rocket 3.4 18:16:39 10° S 18:20:33 55° E 18:24:28 10° NNE
Lacrosse 5 rocket 2.0 18:17:45 10° NW 18:21:29 53° SW 18:25:25 10° SSE
ALOS 3.5 18:20:11 10° ESE 18:23:35 21° ENE 18:27:01 10° NNE
Cosmos 1092 Rocket 4.5 18:18:50 10° SSE 18:24:36 39° E 18:30:24 10° NNE
Cosmos 2333 Rocket 4.1 18:20:39 10° WSW 18:25:25 28° WNW 18:30:14 10° N
Cosmos 1603 4.3 18:20:59 10° SSE 18:25:57 33° ESE 18:30:06 14° NE
Cosmos 1633 Rocket 3.2 18:23:17 10° SSE 18:27:32 49° E 18:31:47 10° NNE
Cosmos 1726 4.4 18:26:03 10° NNW 18:29:21 29° W 18:32:39 10° SSW
Cosmos 292 Rocket 4.5 18:28:51 10° SSE 18:33:02 32° E 18:35:32 19° NE
Coronas F rocket 1.4 18:31:28 10° SSE 18:33:36 38° ESE 18:33:36 38° ESE
Cosmos 2278 Rocket 3.7 18:29:30 10° NW 18:34:44 39° WSW 18:39:57 10° S
Cosmos 1455 2.2 18:33:22 10° N 18:37:08 57° E 18:40:54 10° SSE
FAST Rocket 3.8 18:35:27 10° S 18:38:04 84° WNW 18:40:54 10° N
USA 229 DEB 3.7 18:34:16 10° SSW 18:41:04 70° ESE 18:47:09 14° NE
USA 229 3.7 18:34:23 10° SSW 18:41:10 70° ESE 18:47:12 14° NE
Cosmos 1703 4.2 18:40:23 10° SSW 18:44:09 50° W 18:47:57 10° N
Cosmos 1184 Rocket 2.8 18:42:16 10° S 18:45:36 86° W 18:48:42 12° N
SJ-6B 2.8 18:43:55 10° SSE 18:47:56 62° ENE 18:52:02 10° N
Spot 2 Rocket 4.0 18:44:05 10° SE 18:48:36 34° ENE 18:53:07 10° N
Iridium 4 Rocket 3.1 18:47:58 10° SSE 18:52:21 55° E 18:56:31 10° NNE
Cosmos 1707 Rocket 4.0 18:50:47 10° NNW 18:55:05 62° W 18:59:21 10° S
SL-19 R/B 4.4 18:50:19 10° SE 18:56:00 54° ENE 19:01:27 10° N
COSMO-SKYMED 1 4.2 18:52:33 10° N 18:56:28 34° WNW 19:00:22 10° SW
Cosmos 2237 Rocket 4.5 18:52:56 10° WSW 18:57:02 20° NW 19:01:10 10° N
Cosmos 2369 Rocket 3.5 18:57:57 10° N 19:01:00 22° NNE 19:01:00 22° NNE
Cosmos 1666 Rocket 4.5 18:59:28 10° SSW 19:03:40 49° W 19:07:56 10° N
SL-16 R/B 3.5 18:59:52 10° SW 19:05:06 39° WNW 19:10:23 10° N
H-2A ROCKET BODY 3.7 18:40:28 10° WSW 19:05:33 50° S 19:09:18 24° SE
FREGAT/IRIS 2.9 19:03:34 10° S 19:06:36 67° W 19:09:39 10° NNW
Haruka 4.4 19:04:21 10° WSW 19:08:49 54° S 19:16:07 24° ESE
Resurs 01 Rocket 1.5 19:08:44 10° SSE 19:13:06 60° ENE 19:17:29 10° N
Cosmos 923 Rocket 3.9 19:08:22 10° SSW 19:13:35 85° WNW 19:16:59 22° NNE
Cosmos 1933 Rocket 3.4 19:10:44 10° S 19:15:09 77° E 19:16:31 44° NNE
Cosmos 1680 Rocket 3.3 19:14:48 10° SSW 19:20:00 83° ESE 19:22:05 38° NNE
Cosmos 1655 Rocket 4.1 19:15:18 10° SSE 19:21:29 54° E 19:24:06 33° NNE
Cosmos 1627 Rocket 4.3 19:17:40 10° S 19:23:50 75° E 19:29:59 10° N
CZ-4C R/B 4.4 19:20:38 10° N 19:23:28 15° NNE 19:23:28 15° NNE
Lacrosse 4 Rocket 1.3 19:21:08 10° NNW 19:25:12 75° WSW 19:25:17 75° SW
FENGYUN 3A 3.5 19:24:06 10° SSE 19:29:27 89° WSW 19:34:52 10° NNW
Tiangong 1 3.4 19:27:24 10° WSW 19:28:39 22° WSW 19:28:39 22° WSW
Cosmos 1869 4.3 19:27:31 10° NNW 19:31:24 46° W 19:35:16 10° SSW
NOSS 3-1 (C) 3.2 19:27:07 10° SSW 19:32:43 62° ESE 19:32:51 62° ESE
Cosmos 1470 Rocket 4.2 19:32:28 10° SSW 19:36:43 53° W 19:38:13 35° NNW
USA 215 3.1 19:40:52 54° SE 19:42:35 85° NE 19:49:10 10° NW
Cosmos 1943 3.3 19:37:11 10° SSW 19:41:54 60° SSE 19:41:54 60° SSE
Lacrosse 5 4.4 19:47:17 10° N 19:47:19 10° N 19:47:19 10° N
ATLAS 5 CENTAUR R/B 4.2 19:45:46 10° N 19:47:22 16° N 19:47:22 16° N
Cosmos 2026 Rocket 4.0 19:44:47 10° SSW 19:50:59 74° W 19:55:59 16° N
ATLAS 2A CENTAUR R/B 4.2 19:51:12 10° SSW 19:51:15 10° SSW 19:51:15 10° SSW
ALOS 3.7 19:56:28 10° SSW 20:00:46 37° W 20:05:05 10° NNW
Cosmos 2369 Rocket 4.4 20:41:21 10° NW 20:42:51 18° NW 20:42:51 18° NW
